This is the latest recevied weather packets stored in our database for station/object K0APR. If no packets are shown the sender has not sent any weather packets the latest 10 day(s).
| Time | Temp. | Humidity | Pressure | Rain* | Wind** | Luminosity | Snow |
|---|---|---|---|---|---|---|---|
| 1777898123 | 12.22° C | 63% | 1000.7 hPa | 0 mm | - | 94 W/m² | - |
| 1777897820 | 11.67° C | 63% | 1000.7 hPa | 0 mm | - | 83 W/m² | - |
| 1777897516 | 11.67° C | 64% | 1000.4 hPa | 0 mm | - | 77 W/m² | - |
| 1777897212 | 11.67° C | 64% | 1000.4 hPa | 0 mm | - | 62 W/m² | - |
| 1777896908 | 11.67° C | 64% | 1000.4 hPa | 0 mm | - | 49 W/m² | - |
| 1777896605 | 11.67° C | 63% | 1000.4 hPa | 0 mm | - | 42 W/m² | - |
| 1777896302 | 12.22° C | 63% | 1000.1 hPa | 0 mm | - | 39 W/m² | - |
| 1777896000 | 12.22° C | 62% | 1000.1 hPa | 0 mm | - | 32 W/m² | - |
| 1777895698 | 12.22° C | 62% | 1000.1 hPa | 0 mm | - | 29 W/m² | - |
| 1777895394 | 12.22° C | 62% | 1000.1 hPa | 0 mm | - | 25 W/m² | - |
| 1777895093 | 12.78° C | 61% | 1000.1 hPa | 0 mm | - | 21 W/m² | - |
| 1777894789 | 13.33° C | 59% | 1000.1 hPa | 0 mm | - | 17 W/m² | - |
| 1777894486 | 13.33° C | 57% | 1000.1 hPa | 0 mm | - | 13 W/m² | - |
| 1777894183 | 13.33° C | 56% | 999.3 hPa | 0 mm | - | 11 W/m² | - |
| 1777893881 | 13.33° C | 55% | 999.6 hPa | 0 mm | - | 8 W/m² | - |
| 1777893577 | 13.33° C | 55% | 999.3 hPa | 0 mm | - | 5 W/m² | - |
| 1777893273 | 13.33° C | 54% | 999 hPa | 0 mm | - | 3 W/m² | - |
| 1777892970 | 13.89° C | 53% | 999.3 hPa | 0 mm | - | 0 W/m² | - |
| 1777892667 | 13.89° C | 52% | 998.6 hPa | 0 mm | - | 0 W/m² | - |
| 1777892362 | 13.89° C | 51% | 998.6 hPa | 0 mm | - | 0 W/m² | - |
| 1777892059 | 13.89° C | 50% | 998.3 hPa | 0 mm | - | 0 W/m² | - |
| 1777891756 | 13.89° C | 50% | 998.6 hPa | 0 mm | - | 0 W/m² | - |
| 1777891453 | 13.89° C | 50% | 998.3 hPa | 0 mm | - | 0 W/m² | - |
| 1777891148 | 13.89° C | 49% | 998.3 hPa | 0 mm | - | 0 W/m² | - |
| 1777890843 | 13.89° C | 49% | 998.3 hPa | 0 mm | - | 0 W/m² | - |
* Rain latest hour (hover to see other rain measurements)
** Current wind speed in m/s (hover to see current wind gust speed)